Форум фильмов, сериалов и мультфильмов

Объявление

Информация о пользователе

Привет, Гость! Войдите или зарегистрируйтесь.


Вы здесь » Форум фильмов, сериалов и мультфильмов » Зарубежная музыка


Зарубежная музыка

Тем 27271 страница 27300 из 33230

Тема Ответов Просмотров Последнее сообщение
0 9 23.03.2015 18:44:25  magikgate
0 13 23.03.2015 18:36:53  magikgate
0 14 23.03.2015 18:31:21  magikgate
0 15 23.03.2015 18:26:49  magikgate
27275 Bilal El Aly - Memories  magikgate
0 8 23.03.2015 18:21:41  magikgate
27276 4 Strings - Take Me Away  magikgate
0 9 23.03.2015 18:16:20  magikgate
0 10 23.03.2015 16:53:00  magikgate
0 10 23.03.2015 16:51:33  magikgate
0 8 23.03.2015 16:42:20  magikgate
27280 Nianaro - Cyborgs  magikgate
0 8 23.03.2015 16:37:28  magikgate
27281 Mcaree & Clancy - Morrigan  magikgate
0 8 23.03.2015 16:30:26  magikgate
0 8 23.03.2015 16:22:50  magikgate
27283 Leolife - Raider  magikgate
0 8 23.03.2015 16:17:24  magikgate
27284 Kinetica - One Dream  magikgate
0 8 23.03.2015 16:10:16  magikgate
0 9 23.03.2015 16:04:03  magikgate
0 8 23.03.2015 15:47:18  magikgate
27287 Fred Baker - Rebirth  magikgate
0 18 23.03.2015 15:42:24  magikgate
0 8 23.03.2015 15:27:15  magikgate
0 11 23.03.2015 13:11:29  magikgate
0 9 23.03.2015 11:45:23  magikgate
0 73 23.03.2015 10:10:48  magikgate
0 8 23.03.2015 09:42:50  magikgate
0 11 23.03.2015 09:08:48  magikgate
0 8 23.03.2015 08:16:26  magikgate
0 8 23.03.2015 08:14:15  magikgate
0 10 23.03.2015 08:12:41  magikgate
0 8 23.03.2015 08:11:06  magikgate
0 8 23.03.2015 08:09:32  magikgate
0 11 23.03.2015 08:07:11  magikgate
0 8 23.03.2015 08:05:24  magikgate

Вы здесь » Форум фильмов, сериалов и мультфильмов » Зарубежная музыка